Flag for Ireland Weather past 2 weeks in Galway, Ireland

Now
61 °F

Passing clouds.


Feels Like: 61 °F
Forecast: 55 / 63 °F
Wind: 6 mph from Southwest

Location: Shannon Airport

Current Time: Jul 31, 2014 at 5:12:57 AM

Latest Report: Jul 31, 2014 at 4:30 AM


Visibility: N/A

Pressure: 29.95 "Hg

Humidity: 88%

Dew point: 57 °F

Location of GalwayLocation

Historic Weather in Galway — Graph

°F

Galway temperature yesterday

Maximum temperature yesterday: 68 °F (at 2:30 PM)
Minimum temperature yesterday: 57 °F (at 4:00 AM)
Average temperature yesterday: 63 °F

Past Weeks' High & Low Weather Summary

 TemperatureHumidityPressure
High81 °F (Jul 25, 4:00 PM)100% (Jul 19, 7:30 AM)30.18 "Hg (Jul 19, 7:30 AM)
Low55 °F (Jul 17, 4:00 AM)45% (Jul 25, 4:30 PM)29.68 "Hg (Jul 19, 4:00 PM)
Average65 °F79%30.04 "Hg
* Reported Jul 16 4:00 AM — Jul 31 4:00 AM, Galway, Weather by CustomWeather, © 2014

Note: Actual official high and low records may vary slightly from our data, if they occured in-between our weather recording intervals... More about our weather records

Advertising

Galway weather history for previous 24 hours

 ConditionsComfort  
Time TempWeatherWind HumidityBarometerVisibility
4:00 AM
Jul 31
61 °FPartly cloudy.7 mph83%29.95 "HgN/A
3:30 AM61 °FPartly cloudy.6 mph83%29.95 "HgN/A
3:00 AM61 °FPartly cloudy.8 mph83%29.95 "HgN/A
2:30 AM61 °FPartly cloudy.8 mph83%29.95 "HgN/A
2:00 AM61 °FPartly cloudy.7 mph88%29.98 "HgN/A
1:30 AM61 °FPartly cloudy.7 mph88%29.98 "HgN/A
1:00 AM61 °FPartly cloudy.7 mph88%29.98 "HgN/A
12:30 AM61 °FPartly cloudy.8 mph88%29.98 "HgN/A
12:00 AM61 °FPartly cloudy.7 mph88%29.98 "HgN/A
11:30 PM
Jul 30
61 °FPassing clouds.8 mph94%29.98 "HgN/A
11:00 PM61 °FPassing clouds.9 mph94%29.98 "HgN/A
10:30 PM61 °FBroken clouds.8 mph94%29.98 "HgN/A
10:00 PM61 °FBroken clouds.10 mph94%30.01 "HgN/A
9:30 PM63 °FBroken clouds.10 mph88%29.98 "HgN/A
9:00 PM64 °FDrizzle. Broken clouds.10 mph83%29.98 "HgN/A
8:30 PM64 °FPartly sunny.13 mph83%30.01 "HgN/A
8:00 PM64 °FBroken clouds.12 mph83%30.01 "HgN/A
7:30 PM64 °FBroken clouds.13 mph83%29.98 "HgN/A
7:00 PM64 °FBroken clouds.16 mph83%30.01 "HgN/A
6:30 PM64 °FBroken clouds.16 mph88%30.01 "HgN/A
6:00 PM64 °FBroken clouds.16 mph88%30.01 "HgN/A
5:30 PM66 °FBroken clouds.17 mph78%30.01 "HgN/A
5:00 PM66 °FPartly sunny.18 mph83%30.01 "HgN/A
4:30 PM66 °FSprinkles. Broken clouds.17 mph78%30.01 "Hg5 mi
4:00 PM68 °FScattered clouds.18 mph73%30.04 "HgN/A
3:30 PM66 °FBroken clouds.17 mph73%30.04 "HgN/A
3:00 PM66 °FBroken clouds.16 mph73%30.04 "HgN/A
2:30 PM68 °FBroken clouds.17 mph60%30.04 "HgN/A
2:00 PM66 °FBroken clouds.16 mph68%30.04 "HgN/A
1:30 PM66 °FBroken clouds.17 mph64%30.04 "HgN/A
1:00 PM66 °FBroken clouds.17 mph64%30.04 "HgN/A
12:30 PM64 °FBroken clouds.17 mph68%30.04 "HgN/A
12:00 PM64 °FBroken clouds.16 mph68%30.07 "HgN/A
11:30 AM64 °FPartly sunny.17 mph68%30.07 "HgN/A
11:00 AM66 °FPartly sunny.16 mph64%30.07 "HgN/A
10:30 AM64 °FBroken clouds.16 mph68%30.07 "HgN/A
10:00 AM64 °FPartly sunny.15 mph73%30.07 "HgN/A
9:30 AM63 °FBroken clouds.14 mph77%30.07 "HgN/A
9:00 AM64 °FScattered clouds.15 mph73%30.07 "HgN/A
8:30 AM63 °FScattered clouds.12 mph77%30.07 "HgN/A
8:00 AM61 °FScattered clouds.12 mph83%30.07 "HgN/A
7:30 AM61 °FPassing clouds.9 mph83%30.07 "HgN/A
7:00 AM59 °FPassing clouds.9 mph88%30.07 "HgN/A
6:30 AM59 °FPassing clouds.9 mph88%30.07 "HgN/A
6:00 AM59 °FPassing clouds.10 mph88%30.07 "HgN/A
5:30 AM59 °FPassing clouds.10 mph82%30.07 "HgN/A
5:00 AM59 °FPassing clouds.9 mph88%30.07 "HgN/A
Weather by CustomWeather, © 2014

See weather overviewHow to use our weather pages